Barcelona, Spain

3:06 PM CEST on August 01, 2015 (GMT +0200)
Avenida doctor Gallart i Mones, | | Change Station
CLOSE
Current Station
Personal Weather Station
Location: El Prat De Llobregat, CATALUNYA
Elevation: 13 ft
Nearby Weather Stations
Active Advisory: Thunderstorms

Elev 13 ft 41.32 °N, 2.09 °E | Updated 1 minute ago

Scattered Clouds
Scattered Clouds
76.1 °F
Feels Like 78 °F
N
8.0
Wind Variable Wind from East
Gusts 8.0 mph

Today
High -- | Low -- °F
--% Chance of Precip.
Yesterday
High -- | Low -- °F
Precip. -- in
6:46 AM 9:09 PM
Full, 98% visible
Pressure 29.98 in
Visibility 6.2 miles
Clouds Few 2500 ft
Scattered Clouds 3700 ft
Heat Index 78 °F
Dew Point 64 °F
Humidity 66%
Rainfall 0.45 in
Snow Depth Not available.
UV 6.5 out of 12
Pollen Not available.
Air Quality Not available.
Flu Activity Not available.
METAR LEBL 011300Z 11009KT 080V150 9999 FEW025 SCT037 25/17 Q1015 NOSIG

More Conditions Fewer Conditions

Pressure 29.98 in
Visibility 6.2 miles
Clouds Few 2500 ft
Scattered Clouds 3700 ft
Heat Index 78 °F
Dew Point 64 °F
Humidity 66%
Rainfall 0.45 in
Snow Depth Not available.
UV 6.5 out of 12
Pollen Not available.
Air Quality Not available.
Flu Activity Not available.
METAR LEBL 011300Z 11009KT 080V150 9999 FEW025 SCT037 25/17 Q1015 NOSIG

More Conditions Fewer Conditions

10-Day Weather Forecast

×

Almanac

Astronomy

Aug. 01, 2015 Rise Set
Actual Time
Civil Twilight
Nautical Twilight
Astronomical Twilight
Moon
Length of Visible Light
Length of Day
Tomorrow will be .
, % of the Moon is Illuminated

Today's Extremes

Country Highs Country Lows

Community

WunderPhotos

Upload Photos

1,842,935 photos uploaded!

WunderBlogs® & News

Nearby

Air Quality

  Air Quality AQ Index Pollutant
Not available.

Snow Depth

Station Depth Elevation

Earthquake Activity

City Distance Mag. Time & Date
Minimum magnitude displayed is 2.5.

Coastal Water Temperatures

Place Temperature

Stations

Nearby Weather Stations

Station Location Temp. Windchill Dew Point Humidity Wind Precip. Elev Updated Type